This is the latest recevied weather packets stored in our database for station/object K4CRS-13. If no packets are shown the sender has not sent any weather packets the latest 10 day(s).
| Time | Temp. | Humidity | Pressure | Rain* | Wind** | Luminosity | Snow |
|---|---|---|---|---|---|---|---|
| 1778090030 | 21.67° C | 99% | 1047 hPa | 0 mm | - | 280 W/m² | - |
| 1778089727 | 21.67° C | 99% | 1047.2 hPa | 0 mm | - | 139 W/m² | - |
| 1778089425 | 21.67° C | 99% | 1047 hPa | 0 mm | - | 76 W/m² | - |
| 1778089122 | 21.11° C | 99% | 1047.2 hPa | 0 mm | - | 72 W/m² | - |
| 1778088819 | 21.11° C | 99% | 1047.2 hPa | 0 mm | - | 104 W/m² | - |
| 1778088516 | 21.11° C | 99% | 1047.1 hPa | 0 mm | - | 106 W/m² | - |
| 1778088213 | 21.11° C | 99% | 1047.2 hPa | 0 mm | - | 139 W/m² | - |
| 1778087910 | 21.11° C | 99% | 1047.2 hPa | 0 mm | - | 123 W/m² | - |
| 1778087607 | 21.11° C | 99% | 1047.2 hPa | 0 mm | - | 181 W/m² | - |
| 1778087305 | 21.11° C | 99% | 1047.6 hPa | 0 mm | - | 82 W/m² | - |
| 1778087000 | 21.11° C | 99% | 1047.4 hPa | 0 mm | - | 70 W/m² | - |
| 1778086700 | 21.11° C | 99% | 1047.4 hPa | 0 mm | - | 127 W/m² | - |
| 1778086397 | 20.56° C | 99% | 1047.5 hPa | 0 mm | - | 99 W/m² | - |
| 1778086093 | 20.56° C | 99% | 1047.4 hPa | 0 mm | - | 93 W/m² | - |
| 1778085790 | 20.56° C | 99% | 1047.4 hPa | 0 mm | - | 56 W/m² | - |
| 1778085487 | 20.56° C | 99% | 1047.4 hPa | 0 mm | - | 62 W/m² | - |
| 1778085182 | 21.11° C | 99% | 1047.4 hPa | 0 mm | - | 120 W/m² | - |
| 1778084878 | 21.11° C | 99% | 1047.4 hPa | 0 mm | - | 110 W/m² | - |
| 1778084576 | 21.11° C | 99% | 1047.3 hPa | 0 mm | - | 175 W/m² | - |
| 1778084273 | 21.11° C | 99% | 1047.1 hPa | 0 mm | - | 157 W/m² | - |
| 1778083970 | 20.56° C | 99% | 1047 hPa | 0 mm | - | 183 W/m² | - |
| 1778083668 | 20.56° C | 99% | 1047 hPa | 0 mm | - | 198 W/m² | - |
| 1778083364 | 20.56° C | 99% | 1046.9 hPa | 0 mm | - | 207 W/m² | - |
| 1778083063 | 20.56° C | 99% | 1047 hPa | 0 mm | - | 148 W/m² | - |
| 1778082759 | 20° C | 99% | 1046.8 hPa | 0 mm | - | 193 W/m² | - |
* Rain latest hour (hover to see other rain measurements)
** Current wind speed in m/s (hover to see current wind gust speed)